Cloud_Cover
0 0 0 0 0 0 3 2 17 1 0 6 0 1 54 55 67 100 100 100 99 77 51 13 14 19 5 5 5 5 5 49 5 92 87 5 5 68 65 90 62 15 77 11 3 5 5 4 3
0 0 0 0 0 1 32 38 67 14 2 0 10 31 11 83 100 97 100 100 100 93 89 35 8 5 32 5 5 72 95 82 24 82 82 85 14 88 95 100 90 100 74 20 83 74 9 63 56
0 0 0 0 0 31 85 100 100 99 1 4 28 42 90 93 98 100 100 100 100 98 74 46 14 35 60 27 20 92 58 60 30 42 88 100 68 82 100 98 97 98 64 57 6 100 100 100 96
0 0 0 0 0 4 100 100 100 100 65 96 99 41 50 98 85 78 73 100 100 100 91 56 25 91 100 100 100 100 89 7 82 90 100 100 18 100 100 86 91 77 62 99 100 99 22 100 92
0 0 0 0 0 0 90 62 100 100 89 5 16 58 78 100 100 100 100 99 100 81 62 87 100 100 100 100 100 100 28 56 64 97 98 44 99 100 100 93 98 6 60 91 90 53 64 86 48
0 0 0 0 0 0 94 60 84 89 100 22 6 7 100 100 100 100 100 100 100 97 100 100 100 100 100 100 100 100 100 99 100 100 99 76 100 100 100 99 88 52 96 85 73 55 35 5 3
0 0 0 0 0 12 27 76 100 34 56 26 89 86 100 100 100 100 100 100 100 100 100 100 100 100 100 100 100 100 98 100 100 98 100 100 100 100 100 6 69 37 34 49 9 5 5 2 0
0 0 2 87 5 61 38 91 100 100 100 99 60 99 100 100 100 100 100 100 100 100 100 100 100 100 100 100 100 100 100 100 100 100 100 100 100 98 100 32 5 23 35 5 56 5 48 2 1
0 0 10 70 49 11 72 98 100 100 100 100 100 50 97 100 100 100 100 100 100 100 100 100 100 100 100 100 100 100 100 100 100 100 100 100 100 100 98 72 96 44 18 5 5 5 4 61 23
4 4 21 18 50 60 98 92 100 100 81 74 100 100 100 100 100 100 100 100 100 100 100 100 100 100 100 100 100 100 100 100 100 100 100 100 98 99 100 98 78 48 30 21 96 11 75 100 100
0 11 10 5 38 95 100 100 100 74 95 100 100 100 100 100 100 100 100 100 100 100 100 100 100 100 100 100 100 100 100 100 100 100 100 100 98 100 100 94 100 100 100 100 100 100 100 100 100
4 100 89 6 100 99 100 100 100 100 100 100 100 100 100 100 100 100 100 100 100 100 100 100 100 100 100 100 100 100 100 100 100 100 100 100 97 100 71 100 100 100 93 100 100 100 100 100 100
2 26 98 100 100 100 100 100 100 100 100 100 100 100 100 100 100 100 100 100 100 100 100 100 100 100 100 100 100 100 100 100 100 100 99 60 93 92 100 100 100 99 100 100 100 100 72 84 50
5 83 14 99 100 100 100 100 100 100 100 100 100 100 67 99 100 100 100 100 100 100 100 100 100 100 100 100 100 100 100 100 100 100 100 100 100 100 100 100 100 100 100 99 99 90 97 98 6
4 74 94 100 100 100 100 100 100 100 100 100 83 91 71 100 100 100 100 100 100 100 100 100 100 100 100 100 100 100 100 100 100 100 100 100 100 100 100 100 100 100 100 100 100 100 100 6 8
45 94 100 100 100 98 97 100 100 100 100 67 100 100 99 100 100 86 93 100 100 100 100 100 100 100 100 100 100 100 100 100 100 100 100 100 100 100 100 100 100 100 100 100 100 5 30 94 100
5 51 85 100 99 94 72 98 98 100 100 100 100 100 100 99 100 100 98 100 100 100 100 100 100 100 100 100 100 100 100 100 100 100 100 100 100 100 100 100 100 100 100 74 5 48 100 86 100
5 27 40 98 57 8 99 100 100 100 100 100 100 100 100 100 100 100 100 100 100 100 100 100 100 100 100 100 100 100 100 100 100 100 100 100 100 100 100 100 100 100 30 3 58 86 79 26 18
4 5 47 5 14 22 100 97 100 100 100 100 100 100 100 100 100 100 100 100 100 100 100 100 43 74 100 100 100 100 100 100 100 100 100 45 98 78 40 10 4 4 20 25 17 50 5 5 3
5 5 5 18 70 44 91 100 100 95 93 100 100 100 95 100 100 100 100 100 100 75 96 100 99 100 100 100 100 100 98 100 98 87 100 100 94 100 90 66 54 5 5 5 5 5 4 5 5
5 88 74 74 100 100 100 100 100 88 95 100 100 100 84 68 100 100 100 100 100 100 100 71 38 34 32 12 57 100 89 100 100 100 49 38 35 56 80 27 5 5 5 5 5 51 83 86 52
15 10 82 100 96 100 99 100 100 100 100 100 100 100 94 90 99 83 81 100 100 100 100 100 100 100 100 100 100 100 100 100 100 86 21 25 5 17 5 5 38 5 5 5 27 46 100 97 86
9 10 91 100 96 100 100 100 100 100 100 100 100 95 100 100 100 84 99 100 100 100 100 100 100 100 84 54 25 17 32 64 100 72 100 100 82 79 99 63 50 6 74 81 94 100 100 100 98
4 5 10 82 100 99 98 100 100 70 79 100 100 100 100 100 100 92 56 28 14 32 54 49 40 39 17 13 91 100 90 100 100 91 100 95 100 85 51 80 81 82 62 70 71 33 72 94 61
18 50 8 27 100 100 100 100 100 96 79 82 90 96 100 95 100 23 5 50 74 68 51 11 5 67 5 96 100 100 100 100 100 100 100 100 100 85 100 100 100 80 98 100 93 70 60 75 5
5 74 33 94 84 100 100 100 99 45 94 97 100 100 59 86 33 5 6 6 5 5 5 8 28 98 96 74 100 94 100 100 100 100 100 98 100 100 100 100 99 98 100 100 100 88 95 33 5
5 48 91 87 50 100 100 100 100 33 70 34 100 96 100 100 100 19 6 5 5 5 6 98 100 100 93 100 52 62 12 100 100 100 100 100 100 100 100 88 99 100 100 100 99 100 62 6 8
5 23 4 20 67 85 100 100 100 100 100 100 100 95 57 100 100 100 94 23 4 0 59 100 100 75 31 36 6 30 100 100 100 100 100 100 96 100 100 97 100 100 100 78 39 79 69 87 99
60 60 45 8 5 36 81 100 100 100 100 100 100 100 100 100 100 100 42 5 1 5 5 46 68 17 4 14 63 100 100 100 100 100 91 100 100 100 100 99 100 99 60 94 65 70 100 100 94
5 5 65 58 100 61 25 100 100 26 100 95 54 100 71 76 74 57 5 5 5 5 51 73 7 5 35 100 100 100 100 100 100 100 99 100 100 100 100 100 34 44 96 87 100 89 100 100 100